Location: *
(48.8489°N, 2.3218°E)
Time: 04:18:29
(UTC+00:00)

Cosmos 1842 - Pass Details

Date: 23 August 2019
Orbit: 523 x 537 km, 82.5° (Epoch: 18 September)

Event Time Altitude Azimuth Distance (km) Brightness Sun altitude
Rises 22:04:49 0° 348° (NNW) 2,685 8.0 -25.3°
Reaches altitude 10° 22:06:58 10° 346° (NNW) 1,792 6.9 -25.4°
Enters shadow 22:10:07 53° 323° (NW) 665 4.0 -25.7°
